DW2616 Weather Reports


Display with metric or nautical units.
time (UTC)temp
F
wind
direction
speed
MPH
gust
MPH
rain 1hr
in
rain 24hr
in
rain mn
in
humidity
%
barometer
mb
20180623133505 69 256 0.0 1.0 0.00 0.57 0.00 89 1010.0
20180623133006 69 0 0.0 0.0 0.00 0.57 0.00 90 1010.1
20180623132505 68 0 0.0 0.0 0.00 0.57 0.00 89 1010.2
20180623132005 68 0 0.0 0.0 0.00 0.57 0.00 90 1010.2
20180623131505 67 0 0.0 0.0 0.00 0.57 0.00 85 1010.1
20180623131005 67 0 0.0 0.0 0.00 0.57 0.00 85 1010.1
20180623130506 67 0 0.0 0.0 0.00 0.57 0.00 85 1010.0
20180623130005 67 0 0.0 0.0 0.00 0.57 0.00 85 1009.8
20180623125506 67 0 0.0 0.0 0.00 0.57 0.00 85 1010.0
20180623125005 67 0 0.0 0.0 0.00 0.57 0.00 85 1009.9
20180623124505 67 0 0.0 0.0 0.00 0.57 0.00 85 1010.0
20180623124005 67 0 0.0 0.0 0.00 0.57 0.00 85 1010.1
20180623123506 67 0 0.0 0.0 0.00 0.57 0.00 85 1010.1
20180623123005 67 0 0.0 0.0 0.00 0.57 0.00 85 1010.1
20180623122505 67 0 0.0 0.0 0.00 0.57 0.00 85 1010.1
20180623122005 67 0 0.0 0.0 0.00 0.58 0.00 85 1010.0
20180623121505 67 0 0.0 0.0 0.00 0.58 0.00 85 1010.0
20180623121005 67 0 0.0 0.0 0.00 0.58 0.00 85 1010.0
20180623120505 67 0 0.0 0.0 0.00 0.58 0.00 85 1010.0
20180623120005 67 0 0.0 0.0 0.00 0.58 0.00 85 1009.8
20180623115507 67 0 0.0 0.0 0.00 0.58 0.00 85 1009.8
20180623115005 67 0 0.0 0.0 0.00 0.58 0.00 85 1009.8
20180623114506 67 0 0.0 0.0 0.00 0.58 0.00 85 1009.8
20180623114005 67 0 0.0 0.0 0.00 0.58 0.00 85 1009.8
20180623113505 67 0 0.0 0.0 0.00 0.58 0.00 85 1009.7
20180623113005 67 0 0.0 0.0 0.00 0.58 0.00 85 1009.7
20180623112505 67 0 0.0 0.0 0.00 0.58 0.00 85 1009.7
20180623112006 67 0 0.0 0.0 0.00 0.58 0.00 85 1009.7
20180623111506 67 0 0.0 0.0 0.00 0.58 0.00 85 1009.4
20180623111005 67 0 0.0 0.0 0.00 0.58 0.00 85 1009.4
20180623110505 67 0 0.0 0.0 0.00 0.58 0.00 85 1009.4
20180623110006 67 0 0.0 0.0 0.00 0.58 0.00 85 1009.5
20180623105505 67 0 0.0 0.0 0.00 0.58 0.00 85 1009.5
20180623105005 67 0 0.0 0.0 0.00 0.58 0.00 85 1009.6
20180623104505 67 0 0.0 0.0 0.00 0.58 0.00 85 1009.5
20180623104005 67 0 0.0 0.0 0.00 0.58 0.00 85 1009.4
20180623103505 67 0 0.0 0.0 0.00 0.58 0.00 85 1009.5
20180623103006 67 0 0.0 0.0 0.00 0.58 0.00 85 1009.3
20180623102505 67 0 0.0 0.0 0.00 0.58 0.00 85 1009.3
20180623102006 67 0 0.0 0.0 0.00 0.58 0.00 85 1009.0
20180623101505 67 0 0.0 0.0 0.00 0.59 0.00 85 1009.0
20180623101006 67 0 0.0 0.0 0.00 0.59 0.00 85 1008.7
20180623100505 67 0 0.0 0.0 0.00 0.59 0.00 85 1008.7
20180623100005 67 0 0.0 0.0 0.00 0.59 0.00 85 1008.7
20180623095505 67 0 0.0 0.0 0.00 0.59 0.00 85 1008.7
20180623095005 67 0 0.0 0.0 0.00 0.60 0.00 85 1008.7
20180623094505 67 0 0.0 0.0 0.00 0.61 0.00 85 1008.5
20180623094005 67 0 0.0 0.0 0.00 0.61 0.00 85 1008.4
20180623093506 67 0 0.0 0.0 0.00 0.61 0.00 85 1008.5
20180623093005 67 0 0.0 0.0 0.00 0.61 0.00 85 1008.6
20180623092506 67 0 0.0 0.0 0.00 0.61 0.00 85 1008.5
20180623092005 67 0 0.0 0.0 0.00 0.61 0.00 85 1008.5
20180623091505 67 0 0.0 0.0 0.00 0.61 0.00 90 1008.6
20180623091006 67 0 0.0 0.0 0.00 0.61 0.00 90 1008.6
20180623090506 67 332 0.0 1.0 0.00 0.61 0.00 90 1008.6
20180623090006 67 332 0.0 2.0 0.00 0.61 0.00 90 1009.0
20180623085505 67 331 0.0 2.0 0.00 0.61 0.00 90 1009.1
20180623085006 67 0 0.0 0.0 0.00 0.61 0.00 90 1009.0
20180623084505 67 0 0.0 0.0 0.00 0.61 0.00 90 1009.1
20180623084005 67 0 0.0 0.0 0.00 0.61 0.00 90 1009.1
20180623083505 67 0 0.0 0.0 0.00 0.61 0.00 90 1009.0
20180623083005 67 0 0.0 0.0 0.00 0.61 0.00 90 1009.0
20180623082505 67 0 0.0 0.0 0.00 0.61 0.00 90 1008.8
20180623082005 67 0 0.0 0.0 0.00 0.61 0.00 90 1008.7
20180623081505 67 0 0.0 0.0 0.00 0.61 0.00 90 1008.7
20180623081005 67 0 0.0 0.0 0.00 0.61 0.00 90 1008.7
20180623080505 67 0 0.0 0.0 0.00 0.61 0.00 90 1008.7
20180623080006 67 0 0.0 0.0 0.00 0.61 0.00 90 1008.8
20180623075506 67 0 0.0 0.0 0.00 0.61 0.00 90 1008.7
20180623075005 67 0 0.0 0.0 0.00 0.61 0.00 90 1008.7
20180623074506 67 0 0.0 0.0 0.00 0.61 0.00 90 1008.8
20180623074006 67 0 0.0 0.0 0.00 0.61 0.00 90 1008.8
20180623073506 67 0 0.0 0.0 0.00 0.61 0.00 90 1009.0
20180623073006 67 0 0.0 0.0 0.00 0.61 0.00 90 1008.9
20180623072506 67 0 0.0 0.0 0.00 0.61 0.00 90 1008.9
20180623072005 67 0 0.0 0.0 0.00 0.61 0.00 90 1008.9
20180623071505 67 331 0.0 1.0 0.00 0.61 0.00 90 1009.0
20180623071005 67 331 0.0 1.0 0.00 0.61 0.00 90 1009.1
20180623070506 67 0 0.0 0.0 0.00 0.61 0.00 90 1009.3
20180623070006 67 0 0.0 0.0 0.00 0.61 0.00 90 1009.4
20180623065506 67 0 0.0 0.0 0.00 0.61 0.00 90 1009.4
20180623065006 67 0 0.0 0.0 0.00 0.61 0.00 90 1009.3
20180623064506 67 0 0.0 0.0 0.00 0.61 0.00 90 1009.4
20180623064006 67 0 0.0 0.0 0.00 0.61 0.00 90 1009.4
20180623063505 67 0 0.0 0.0 0.00 0.61 0.00 90 1009.5
20180623063006 67 0 0.0 0.0 0.00 0.61 0.00 90 1009.5
20180623062505 67 0 0.0 0.0 0.00 0.61 0.00 90 1009.6
20180623062006 67 0 0.0 0.0 0.00 0.61 0.00 90 1009.4
20180623061506 67 0 0.0 0.0 0.00 0.61 0.00 90 1009.2
20180623061006 67 0 0.0 0.0 0.00 0.61 0.00 90 1009.5
20180623060505 67 0 0.0 0.0 0.00 0.61 0.00 90 1009.5
20180623060006 67 0 0.0 0.0 0.00 0.61 0.00 89 1009.4
20180623055505 67 0 0.0 0.0 0.00 0.61 0.00 89 1009.4
20180623055005 67 0 0.0 0.0 0.00 0.61 0.00 89 1009.5
20180623054505 67 0 0.0 0.0 0.00 0.61 0.00 89 1009.4
20180623054006 67 0 0.0 0.0 0.00 0.61 0.00 89 1009.4
20180623053506 67 0 0.0 0.0 0.00 0.61 0.00 89 1009.2
20180623053006 67 0 0.0 0.0 0.00 0.61 0.00 89 1009.1
20180623052505 67 0 0.0 0.0 0.00 0.61 0.00 89 1009.1
20180623052006 67 0 0.0 0.0 0.00 0.61 0.00 89 1009.1
20180623051506 67 0 0.0 0.0 0.00 0.61 0.00 89 1009.0
20180623051005 68 0 0.0 0.0 0.00 0.61 0.00 89 1008.9
20180623050506 68 0 0.0 0.0 0.00 0.61 0.00 89 1008.9
20180623050010 68 0 0.0 0.0 0.00 0.61 0.00 89 1008.8
20180623045505 67 0 0.0 0.0 0.00 0.61 0.61 89 1008.6
20180623045005 67 0 0.0 0.0 0.00 0.61 0.61 89 1008.7
20180623044505 67 0 0.0 0.0 0.00 0.61 0.61 89 1008.7
20180623044006 68 0 0.0 0.0 0.00 0.62 0.61 89 1008.9
20180623043505 68 0 0.0 0.0 0.00 0.62 0.61 90 1008.8
20180623043005 68 0 0.0 0.0 0.00 0.62 0.61 89 1008.8
20180623042505 67 0 0.0 0.0 0.00 0.63 0.61 89 1008.9
20180623042005 68 0 0.0 0.0 0.00 0.63 0.61 90 1009.0
20180623041506 68 0 0.0 0.0 0.00 0.63 0.61 90 1009.0
20180623041006 67 0 0.0 0.0 0.00 0.63 0.61 90 1008.9
20180623040506 67 0 0.0 0.0 0.00 0.63 0.61 90 1008.9
20180623040006 67 0 0.0 0.0 0.00 0.63 0.61 90 1008.8
20180623035506 67 0 0.0 0.0 0.00 0.63 0.61 90 1008.8
20180623035005 67 0 0.0 0.0 0.00 0.63 0.61 90 1008.7
20180623034505 68 0 0.0 0.0 0.00 0.63 0.61 90 1008.8
20180623034005 68 0 0.0 0.0 0.00 0.63 0.61 90 1008.9
20180623033505 68 0 0.0 0.0 0.00 0.63 0.61 90 1008.9
20180623033005 68 0 0.0 0.0 0.00 0.63 0.61 90 1008.9
20180623032505 68 0 0.0 0.0 0.00 0.63 0.61 90 1008.8
20180623032006 68 0 0.0 0.0 0.00 0.63 0.61 90 1008.8
20180623031506 68 0 0.0 0.0 0.00 0.63 0.61 89 1008.8
20180623031005 68 0 0.0 0.0 0.00 0.63 0.61 89 1008.6
20180623030505 68 0 0.0 0.0 0.00 0.63 0.61 89 1008.6
20180623030005 68 0 0.0 0.0 0.00 0.63 0.61 89 1008.4
20180623025505 68 0 0.0 0.0 0.00 0.63 0.61 89 1008.4
20180623025005 68 0 0.0 0.0 0.00 0.63 0.61 89 1008.4
20180623024505 68 0 0.0 0.0 0.00 0.63 0.61 89 1008.3
20180623024006 68 0 0.0 0.0 0.00 0.63 0.61 89 1008.3
20180623023505 68 331 0.0 1.0 0.00 0.63 0.61 89 1008.3
20180623023006 68 331 0.0 1.0 0.00 0.63 0.61 89 1008.2
20180623022506 68 0 0.0 0.0 0.00 0.63 0.61 89 1008.2
20180623022006 68 0 0.0 0.0 0.00 0.63 0.61 89 1008.3
20180623021505 68 0 0.0 0.0 0.00 0.63 0.61 89 1008.3
20180623021005 68 0 0.0 0.0 0.00 0.63 0.61 89 1008.2
20180623020505 68 0 0.0 0.0 0.00 0.63 0.61 89 1008.2
20180623020006 68 0 0.0 0.0 0.00 0.63 0.61 89 1008.2
20180623015506 68 0 0.0 0.0 0.00 0.63 0.61 89 1008.2
20180623015005 68 0 0.0 0.0 0.00 0.63 0.61 89 1008.1
20180623014505 68 0 0.0 0.0 0.00 0.63 0.61 89 1008.1
20180623014005 68 0 0.0 0.0 0.00 0.63 0.61 89 1008.2
20180623013505 68 0 0.0 0.0 0.00 0.63 0.61 89 1008.1
20180623013006 68 0 0.0 0.0 0.00 0.63 0.61 88 1008.1
20180623012506 69 0 0.0 0.0 0.00 0.63 0.61 88 1008.1
20180623012006 69 0 0.0 0.0 0.00 0.63 0.61 88 1008.1
20180623011506 69 0 0.0 0.0 0.00 0.63 0.61 87 1008.1
20180623011006 69 0 0.0 0.0 0.00 0.63 0.61 87 1008.1
20180623010506 69 0 0.0 0.0 0.00 0.63 0.61 86 1008.1
20180623010006 69 290 0.0 2.0 0.00 0.63 0.61 85 1008.1
20180623005506 70 290 0.0 2.0 0.00 0.63 0.61 85 1008.1
20180623005006 70 293 0.0 1.0 0.00 0.63 0.61 84 1008.0
20180623004506 70 291 0.0 3.0 0.00 0.63 0.61 84 1008.0
20180623004005 70 291 0.0 3.0 0.00 0.63 0.61 84 1008.0
20180623003506 70 276 0.0 1.0 0.00 0.63 0.61 84 1008.0
20180623003005 70 276 0.0 1.0 0.00 0.63 0.61 83 1008.0
20180623002506 70 290 0.0 5.0 0.00 0.63 0.61 84 1007.9
20180623002005 70 297 0.0 5.0 0.00 0.63 0.61 84 1007.9
20180623001505 70 342 0.0 3.0 0.00 0.63 0.61 84 1008.0
20180623001005 70 344 0.0 3.0 0.00 0.63 0.61 84 1007.9
20180623000505 70 8 0.0 2.0 0.00 0.63 0.61 84 1007.7
20180623000005 70 9 0.0 2.0 0.00 0.63 0.61 84 1007.7
20180622235505 70 359 0.0 4.0 0.00 0.63 0.61 84 1007.8
20180622235005 70 342 1.0 4.0 0.00 0.63 0.61 84 1007.8
20180622234506 70 324 1.0 5.0 0.00 0.63 0.61 84 1007.7
20180622234006 70 338 1.0 5.0 0.00 0.63 0.61 84 1007.7
20180622233506 70 344 1.0 4.0 0.00 0.63 0.61 84 1007.7
20180622233005 70 341 1.0 4.0 0.01 0.63 0.61 84 1007.7
20180622232505 70 359 1.0 4.0 0.01 0.63 0.61 85 1007.7
20180622232006 70 321 1.0 7.0 0.01 0.63 0.61 84 1007.6
20180622231505 70 288 1.0 7.0 0.01 0.63 0.61 84 1007.6
20180622231005 70 306 1.0 6.0 0.01 0.63 0.61 85 1007.6
20180622230505 70 11 1.0 5.0 0.01 0.63 0.61 86 1007.7
20180622230006 70 351 1.0 5.0 0.01 0.63 0.61 85 1007.7
20180622225506 70 333 1.0 5.0 0.01 0.63 0.61 86 1007.8
20180622225005 70 300 0.0 3.0 0.01 0.63 0.61 87 1007.7
20180622224506 70 331 0.0 3.0 0.01 0.63 0.61 87 1007.8
20180622224006 70 304 1.0 5.0 0.01 0.65 0.61 87 1007.8
20180622223505 70 301 1.0 5.0 0.01 0.70 0.61 87 1007.9
20180622223005 69 290 1.0 5.0 0.00 0.69 0.60 87 1007.8
20180622222505 70 260 1.0 4.0 0.00 0.69 0.60 87 1007.9
20180622222005 70 297 1.0 4.0 0.00 0.69 0.60 87 1007.8
20180622221505 69 316 1.0 4.0 0.00 0.69 0.60 88 1007.9
20180622221005 69 341 1.0 6.0 0.00 0.69 0.60 88 1007.9
20180622220505 69 10 0.0 6.0 0.00 0.69 0.60 89 1007.9
20180622220006 69 359 0.0 5.0 0.00 0.69 0.60 88 1007.9
20180622215506 70 358 0.0 5.0 0.00 0.69 0.60 88 1008.0
20180622215006 70 349 1.0 4.0 0.00 0.69 0.60 89 1008.0
20180622214505 69 338 1.0 4.0 0.00 0.69 0.60 88 1008.0
20180622214005 70 319 1.0 4.0 0.00 0.69 0.60 89 1007.9
20180622213505 69 335 1.0 4.0 0.00 0.69 0.60 89 1008.0
20180622213005 69 322 1.0 5.0 0.00 0.69 0.60 89 1008.0
20180622212505 69 307 2.0 11.0 0.00 0.69 0.60 89 1008.0
20180622212006 69 302 1.0 11.0 0.00 0.69 0.60 90 1008.0
20180622211505 69 317 1.0 7.0 0.00 0.69 0.60 90 1008.0
20180622211005 69 338 2.0 7.0 0.00 0.69 0.60 90 1008.1
20180622210505 69 2 1.0 10.0 0.00 0.69 0.60 91 1008.1
20180622210006 69 13 1.0 10.0 0.00 0.69 0.60 91 1008.2
20180622205506 69 355 1.0 4.0 0.00 0.69 0.60 91 1008.2
20180622205006 69 337 1.0 5.0 0.00 0.69 0.60 91 1008.1
20180622204505 69 291 2.0 6.0 0.00 0.69 0.60 91 1008.2
20180622204005 69 296 2.0 6.0 0.00 0.69 0.60 92 1008.2
20180622203506 70 300 2.0 6.0 0.00 0.69 0.60 93 1008.1
20180622203006 70 299 1.0 6.0 0.00 0.69 0.60 93 1008.1
20180622202505 70 318 1.0 6.0 0.01 0.69 0.60 93 1008.0
20180622202005 69 280 1.0 5.0 0.03 0.69 0.60 93 1008.0
20180622201506 69 319 1.0 5.0 0.09 0.69 0.60 93 1008.1
20180622201005 69 355 1.0 5.0 0.14 0.69 0.60 94 1008.0
20180622200505 69 7 0.0 3.0 0.18 0.69 0.60 93 1008.0
20180622200005 69 16 0.0 3.0 0.19 0.69 0.60 93 1008.0
20180622195506 69 17 0.0 2.0 0.19 0.69 0.60 94 1008.0
20180622195006 69 4 0.0 4.0 0.19 0.69 0.60 93 1007.9
20180622194506 69 2 0.0 4.0 0.19 0.69 0.60 93 1008.0
20180622194006 69 1 0.0 3.0 0.19 0.69 0.60 93 1008.0
20180622193506 69 6 0.0 3.0 0.20 0.69 0.60 93 1008.0
20180622193006 69 41 0.0 2.0 0.24 0.69 0.60 93 1008.0
20180622192506 68 3 0.0 3.0 0.23 0.68 0.59 93 1007.9
20180622192006 68 356 0.0 3.0 0.22 0.66 0.57 93 1008.0
20180622191505 68 6 1.0 5.0 0.16 0.60 0.51 92 1008.0
20180622191005 69 356 1.0 5.0 0.12 0.55 0.46 92 1008.0
20180622190505 69 285 0.0 1.0 0.08 0.50 0.41 92 1008.0
20180622190006 69 284 0.0 2.0 0.12 0.50 0.41 93 1008.0
20180622185506 68 248 0.0 2.0 0.17 0.50 0.41 93 1008.0
20180622185007 68 271 1.0 3.0 0.22 0.50 0.41 92 1008.0
20180622184505 68 302 1.0 5.0 0.25 0.50 0.41 92 1008.0
20180622184005 68 270 1.0 5.0 0.25 0.49 0.40 91 1008.1
20180622183505 69 260 1.0 4.0 0.25 0.48 0.39 91 1008.1
20180622183006 69 301 1.0 6.0 0.23 0.45 0.36 92 1008.2
20180622182505 69 311 1.0 6.0 0.25 0.45 0.36 92 1008.1
20180622182005 70 7 0.0 3.0 0.25 0.44 0.35 92 1008.1
20180622181506 70 328 0.0 2.0 0.27 0.44 0.35 92 1008.0
20180622181005 69 327 0.0 2.0 0.28 0.43 0.34 91 1008.0
20180622180506 70 325 0.0 2.0 0.29 0.42 0.33 91 1007.9
20180622180006 70 326 0.0 4.0 0.24 0.37 0.28 91 1008.0
20180622175505 70 325 0.0 4.0 0.19 0.32 0.23 90 1007.9
20180622175006 70 321 0.0 2.0 0.14 0.27 0.18 90 1007.9
20180622174505 70 320 0.0 2.0 0.12 0.25 0.16 90 1008.0
20180622174006 70 320 0.0 2.0 0.11 0.24 0.15 89 1007.9
20180622173506 70 318 0.0 2.0 0.10 0.23 0.14 88 1007.7
20180622173006 70 317 1.0 5.0 0.09 0.22 0.13 87 1007.7
20180622172505 71 310 1.0 5.0 0.07 0.20 0.11 86 1007.7
20180622172006 72 306 1.0 5.0 0.06 0.19 0.10 86 1007.7
20180622171506 72 305 0.0 4.0 0.04 0.17 0.08 85 1007.5
20180622171005 73 322 1.0 3.0 0.02 0.15 0.06 83 1007.4
20180622170505 73 358 1.0 5.0 0.00 0.13 0.04 82 1007.4
20180622170006 74 54 2.0 5.0 0.00 0.13 0.04 75 1007.4
20180622165505 74 86 1.0 4.0 0.00 0.13 0.04 75 1007.4
20180622165006 74 293 2.0 5.0 0.00 0.13 0.04 75 1007.3
20180622164505 74 297 2.0 5.0 0.00 0.13 0.04 75 1007.4
20180622164005 74 286 1.0 3.0 0.00 0.13 0.04 75 1007.3
20180622163505 74 199 1.0 2.0 0.00 0.13 0.04 76 1007.3
20180622163005 74 121 1.0 3.0 0.00 0.13 0.04 76 1007.3
20180622162505 74 292 1.0 3.0 0.00 0.13 0.04 75 1007.3
20180622162005 74 271 1.0 3.0 0.00 0.13 0.04 75 1007.4
20180622161506 74 231 1.0 4.0 0.00 0.13 0.04 75 1007.5
20180622161006 75 232 1.0 4.0 0.00 0.13 0.04 75 1007.4
20180622160505 75 240 1.0 3.0 0.00 0.13 0.04 75 1007.3
20180622160005 75 232 1.0 3.0 0.00 0.13 0.04 77 1007.4
20180622155505 74 258 1.0 6.0 0.00 0.13 0.04 79 1007.4
20180622155005 73 290 1.0 6.0 0.00 0.13 0.04 78 1007.4
20180622154505 73 326 1.0 6.0 0.00 0.13 0.04 78 1007.4
20180622154006 73 312 1.0 4.0 0.00 0.13 0.04 78 1007.4
20180622153506 73 228 1.0 4.0 0.00 0.13 0.04 81 1007.4
20180622153005 73 229 1.0 3.0 0.00 0.13 0.04 81 1007.3
20180622152505 73 263 1.0 3.0 0.00 0.13 0.04 81 1007.3
20180622152005 72 335 1.0 3.0 0.00 0.13 0.04 82 1007.3
20180622151506 72 355 1.0 4.0 0.00 0.13 0.04 83 1007.2
20180622151005 70 326 1.0 4.0 0.00 0.13 0.04 84 1007.2
20180622150505 70 206 1.0 2.0 0.00 0.13 0.04 85 1007.2
20180622150005 70 211 1.0 4.0 0.00 0.13 0.04 85 1007.2
20180622145506 70 222 1.0 4.0 0.00 0.13 0.04 85 1007.2
20180622145006 70 210 0.0 3.0 0.00 0.13 0.04 85 1007.1
20180622144505 70 101 0.0 2.0 0.00 0.13 0.04 86 1007.1
20180622144005 70 232 0.0 2.0 0.00 0.13 0.04 86 1007.0
20180622143507 70 213 1.0 2.0 0.00 0.13 0.04 86 1007.0
20180622143007 69 275 1.0 2.0 0.00 0.13 0.04 87 1007.1
20180622142507 69 266 1.0 5.0 0.00 0.13 0.04 87 1007.2
20180622142007 69 211 1.0 5.0 0.00 0.13 0.04 87 1007.2
20180622141507 69 283 1.0 3.0 0.00 0.13 0.04 87 1007.2
20180622141007 69 297 1.0 3.0 0.00 0.13 0.04 87 1007.2
20180622140507 69 78 1.0 3.0 0.00 0.13 0.04 87 1007.1
20180622140008 69 202 0.0 2.0 0.00 0.13 0.04 88 1007.1
20180622135506 68 234 0.0 2.0 0.00 0.13 0.04 88 1007.1
20180622135007 68 303 1.0 5.0 0.00 0.13 0.04 88 1007.1
20180622134507 68 310 1.0 5.0 0.00 0.13 0.04 89 1007.0
20180622134007 68 302 1.0 4.0 0.00 0.13 0.04 89 1007.0